Location: Chmeli�t?
(49.8978°N, 15.0526°E)
Time: 20:52:42
(UTC+00:00)

STARLINK-1257 - Visible Passes

Search period start: 25 September 2020 00:00
Search period end: 05 October 2020 00:00
Orbit: 548 x 550 km, 53.0° (Epoch: 25 September)

Date Brightness Start Highest point End Pass type
(mag) Time Alt. Az. Time Alt. Az. Time Alt. Az.
30 Sep 6.7 03:32:26 10° SE 03:33:01 10° SE 03:33:35 10° ESE visible
01 Oct 6.3 03:25:21 10° SSE 03:27:28 14° SE 03:29:34 10° E visible
02 Oct 6.0 03:19:09 10° S 03:21:57 18° SE 03:24:46 10° E visible
03 Oct 5.6 03:13:38 12° S 03:16:31 23° SE 03:19:48 10° E visible
04 Oct 5.2 03:09:03 19° S 03:11:08 29° SE 03:14:43 10° E visible
